SCP
1 1 1 1 1 1 1 1 1 1 1 1 1 1 1 1 1 1 1 1 1 0 1 1 1 0 0 0 0 0 0 0 0 0 0 0 0 0 0 0 0 0 0
1 1 1 1 1 1 1 1 1 1 1 1 2 1 1 1 1 1 1 1 1 1 1 0 0 1 0 0 0 0 0 0 0 0 0 0 0 0 0 0 0 0 0
1 1 1 1 1 1 1 1 1 2 2 2 2 2 2 2 1 1 1 1 1 1 1 1 0 1 1 1 1 1 0 0 0 0 0 0 0 0 0 0 0 0 0
1 1 1 1 1 1 2 2 2 2 2 2 2 2 2 2 2 2 1 1 1 1 1 1 1 1 1 1 1 1 0 0 0 0 0 0 0 0 0 0 0 0 0
1 1 1 1 1 1 2 2 2 2 2 2 2 2 2 2 2 2 2 1 1 1 1 1 1 1 1 1 1 1 0 0 0 0 0 0 0 0 0 0 0 0 0
1 1 1 2 2 2 2 2 2 2 2 2 2 2 2 2 2 2 2 1 1 1 1 1 1 1 1 1 1 1 0 0 0 0 0 0 0 0 0 0 0 0 0
1 1 1 2 2 2 2 2 2 2 2 2 2 2 2 2 2 2 2 1 1 1 1 1 1 1 1 1 1 1 0 0 0 0 0 0 0 1 0 0 0 0 0
1 2 2 2 2 2 2 2 3 3 3 2 2 2 2 2 2 2 2 2 1 1 1 1 1 1 1 1 1 1 0 0 0 0 0 0 1 1 0 0 0 0 0
2 2 2 2 2 2 2 2 3 3 3 2 2 2 2 2 2 2 2 2 2 1 1 1 1 1 1 1 1 1 0 0 0 0 0 0 1 1 0 0 0 0 0
2 2 3 2 1 2 2 2 3 3 3 2 2 2 2 2 1 1 2 2 2 1 1 1 1 1 1 1 1 1 0 0 0 0 0 1 1 1 0 0 0 0 0
2 2 2 2 1 1 2 2 3 3 3 2 2 2 2 2 1 1 1 2 1 1 1 1 1 1 1 1 1 1 0 0 0 0 1 1 1 1 0 0 0 0 0
2 2 2 2 2 1 1 2 3 3 3 3 2 2 2 2 2 2 2 2 1 1 1 1 1 1 1 1 1 1 0 0 0 0 1 1 1 1 1 1 1 0 0
3 3 2 2 2 2 2 2 3 3 3 3 3 3 3 3 3 3 2 2 2 1 1 1 1 1 1 1 1 1 1 1 1 1 1 1 1 1 1 1 1 1 1
4 4 3 3 2 2 2 2 3 3 3 4 4 4 4 4 4 3 3 3 2 2 2 2 2 2 1 1 1 1 1 1 1 1 1 1 1 1 1 1 1 1 1
4 4 4 3 3 3 3 3 3 3 4 4 4 4 4 4 4 4 4 3 3 3 3 3 2 2 2 1 1 1 1 1 1 1 1 1 1 1 1 1 1 1 1
3 3 3 3 3 3 3 3 4 4 4 4 4 4 4 4 4 4 4 4 4 3 4 3 3 2 2 2 1 1 1 1 1 1 1 1 1 1 1 1 1 1 1
3 2 2 2 3 3 3 3 4 4 4 4 4 4 3 3 3 4 4 4 4 4 4 4 3 2 2 2 2 2 2 2 2 1 1 1 1 1 1 1 1 1 1
3 3 3 2 3 3 3 4 3 3 4 4 4 3 3 3 3 3 4 4 4 4 4 3 3 3 2 2 2 2 2 2 2 2 2 2 2 2 2 1 1 1 1
3 3 3 3 3 3 4 4 4 3 4 4 4 4 3 3 3 3 4 4 4 4 3 3 3 3 3 2 2 2 2 2 2 2 2 2 2 2 2 2 1 2 2
2 2 3 3 3 4 4 4 4 4 4 4 4 4 4 4 3 3 4 4 3 3 3 3 3 3 3 2 2 2 1 2 2 2 2 3 2 2 2 2 2 2 2
2 2 3 4 4 5 5 5 5 4 4 4 4 4 4 4 3 3 4 4 4 4 4 3 3 3 3 3 2 2 1 2 2 2 2 3 3 2 2 2 3 3 3
2 2 3 3 5 6 7 7 6 6 5 5 4 4 4 3 3 3 4 4 4 4 4 4 4 3 3 3 3 2 2 2 2 2 3 3 3 3 3 3 2 2 2
3 2 2 2 4 6 8 8 7 7 6 5 5 5 4 3 3 3 3 4 4 4 5 4 4 3 3 3 3 2 2 2 2 2 3 3 3 3 3 2 2 2 2
2 2 2 2 2 4 7 8 7 7 7 6 5 4 3 3 3 3 3 4 4 4 4 4 4 3 3 3 3 2 2 2 2 2 2 2 2 3 3 2 2 1 1
3 3 3 3 3 4 5 7 7 7 6 5 4 3 3 2 2 2 3 3 3 4 4 3 3 3 3 2 3 3 2 2 2 1 1 1 2 2 2 2 2 2 1
5 5 4 4 4 4 4 5 7 7 6 5 4 3 3 3 3 2 2 2 3 3 3 3 3 3 3 2 3 3 3 2 2 1 1 1 1 1 1 1 1 1 1
Wind_Speed
12 17 17 14 13 13 13 14 16 16 16 16 15 14 14 13 13 12 12 12 11 11 10 10 10 10 11 11 12 12 13 13 13 13 13 13 12 12 12 11 10 12 13
15 18 17 14 13 13 14 15 16 16 16 16 15 15 14 13 12 12 12 11 11 10 10 10 10 11 11 12 12 12 13 13 12 12 13 13 12 11 10 6 5 12 11
16 18 17 14 13 14 14 15 15 16 16 16 15 15 14 13 12 12 11 11 10 10 10 10 10 11 11 12 12 12 12 12 12 12 12 11 12 10 9 9 12 13 11
16 16 16 15 13 14 14 14 15 16 17 16 15 15 14 13 12 12 12 11 10 10 10 10 10 11 11 11 11 11 11 11 11 11 9 8 10 12 10 10 10 11 10
15 14 16 16 14 14 14 14 15 16 16 16 15 15 14 13 12 11 12 11 11 10 10 10 10 10 10 11 11 11 11 10 9 11 6 7 9 12 10 10 10 10 10
15 14 17 14 14 13 14 14 14 15 15 15 15 14 13 13 12 11 11 11 11 10 10 10 10 10 10 10 10 10 10 10 11 7 6 6 9 11 10 10 10 10 9
15 14 17 13 12 13 13 13 13 14 14 13 13 13 12 12 11 11 11 11 10 10 10 10 10 9 9 9 9 9 9 9 9 6 6 6 9 12 10 10 10 9 9
14 14 15 14 13 12 12 12 12 12 12 12 12 11 11 10 10 10 10 10 10 9 10 10 9 9 8 8 8 8 9 10 8 6 6 5 11 10 10 10 9 9 9
13 14 14 15 13 12 10 10 10 10 10 10 11 10 10 10 10 10 10 9 9 9 9 9 9 9 8 7 7 7 7 8 8 5 6 5 12 10 10 10 9 9 9
11 11 13 13 13 13 13 11 10 9 9 10 11 11 11 11 10 10 10 9 9 10 9 9 9 8 8 7 6 6 6 8 9 6 5 7 12 11 10 10 10 9 9
9 9 10 11 11 11 11 12 12 11 9 10 11 11 11 11 11 11 10 10 10 10 10 9 9 8 8 8 7 6 8 8 7 4 4 11 11 11 11 11 10 10 9
9 8 7 8 9 9 7 9 8 9 9 9 8 10 9 6 5 7 10 10 10 9 9 10 9 9 10 9 10 10 7 8 6 5 5 12 10 11 11 11 10 10 10
8 6 5 6 6 6 5 5 5 4 5 7 7 7 6 6 5 5 5 8 9 10 9 9 10 9 9 6 5 7 7 6 4 4 7 12 10 11 11 11 11 10 10
6 5 4 4 4 4 4 4 4 4 4 5 6 7 5 4 5 5 4 5 6 5 6 6 6 7 7 6 7 7 7 6 5 4 6 11 10 10 11 12 11 11 10
5 4 3 3 3 3 3 3 3 3 3 3 3 5 4 4 5 4 4 4 6 5 6 6 6 6 6 7 7 8 7 7 7 6 5 11 10 10 11 12 12 11 10
3 2 2 2 3 2 2 2 2 2 2 2 2 3 4 3 3 4 5 5 5 5 5 5 6 5 5 5 6 7 7 7 7 7 5 8 10 10 10 11 12 11 11
3 2 1 1 2 2 2 2 1 1 1 1 1 2 3 3 3 4 4 4 4 5 5 5 5 5 5 5 6 6 6 6 6 6 6 5 7 10 10 10 10 11 11
4 3 2 1 1 1 1 1 1 0 0 1 1 2 3 4 4 4 4 4 4 4 4 4 5 5 5 4 4 4 4 4 6 5 5 4 4 5 8 10 10 10 11
6 4 4 3 3 1 1 0 0 0 1 1 1 1 2 3 4 4 4 3 4 4 4 5 4 5 5 5 4 4 4 4 4 5 4 4 4 4 4 8 11 11 11
7 6 5 3 3 1 1 1 1 1 1 1 1 1 1 2 2 3 4 4 4 4 4 4 4 4 4 4 4 3 2 2 3 3 4 3 3 5 5 6 7 8 11
7 7 6 4 3 1 1 0 0 0 1 0 0 1 1 2 2 3 4 3 4 4 4 5 4 5 5 4 4 3 2 2 2 1 2 3 4 4 5 5 4 5 6
8 7 6 5 4 3 2 1 1 1 1 1 1 1 1 2 2 2 3 3 3 3 4 5 5 4 4 5 4 3 3 3 2 1 1 2 3 3 5 5 6 5 5
8 8 6 6 5 4 3 1 1 0 0 0 1 1 2 2 2 2 2 3 3 3 3 4 5 6 5 5 4 4 4 4 3 2 1 2 3 3 4 4 6 5 6
8 7 6 6 6 5 4 3 1 1 1 1 2 2 2 2 2 2 2 2 2 2 3 4 4 4 5 5 4 3 2 2 4 3 2 2 3 4 4 4 5 6 6
7 6 6 6 6 6 5 4 3 3 2 2 2 2 2 2 3 3 2 2 1 1 2 2 2 3 3 4 3 3 2 2 3 4 4 4 3 3 3 4 4 4 5
7 7 6 7 7 7 7 6 5 5 4 4 4 3 3 3 4 5 4 3 2 1 0 1 1 1 1 3 3 3 3 3 4 3 4 5 5 3 4 3 4 4 4
Wind_Direction
149 141 141 146 144 142 143 146 148 147 146 148 149 148 146 144 142 139 136 135 133 131 128 126 127 128 128 127 126 126 126 126 126 126 125 123 122 121 121 132 147 112 112
144 140 143 146 144 143 143 144 145 145 146 148 149 148 146 145 143 140 139 138 136 133 130 128 128 128 129 130 130 131 132 133 133 133 133 130 126 124 126 127 66 104 119
142 141 148 146 144 143 142 141 142 144 145 147 147 148 147 146 145 143 143 141 139 137 134 133 132 132 132 133 135 136 138 139 141 146 163 147 129 130 127 112 99 116 120
141 146 150 143 144 141 140 139 140 143 145 146 147 150 151 150 149 147 146 144 142 140 140 139 137 136 136 137 140 141 142 144 149 173 182 136 135 132 135 128 125 126 124
141 146 140 147 145 143 142 141 142 145 146 148 149 152 153 152 150 149 150 149 146 144 144 143 142 141 140 142 145 145 145 148 163 207 149 138 129 135 144 141 138 135 133
144 147 141 152 148 145 144 144 145 146 147 150 151 152 153 153 152 153 154 153 151 148 148 147 146 146 148 150 151 151 154 161 194 181 143 152 134 143 152 151 148 144 143
147 147 145 152 149 149 150 149 149 148 149 150 151 151 153 152 154 156 156 156 155 155 154 153 152 152 154 156 157 158 165 187 225 156 159 163 127 144 159 159 156 152 151
147 146 142 151 154 155 155 153 152 151 150 151 152 152 152 152 155 157 158 159 160 160 159 159 158 157 157 159 162 168 179 211 216 170 170 150 120 155 166 165 162 161 160
148 146 150 159 162 163 160 156 152 149 150 151 151 152 154 156 160 164 163 164 165 165 164 164 164 164 163 165 168 173 187 229 245 179 180 150 138 167 173 171 171 171 169
150 153 156 162 163 169 168 163 161 157 155 154 157 161 162 164 171 173 176 169 173 173 173 172 172 171 169 172 177 183 194 222 234 193 185 139 148 175 178 177 179 177 176
148 155 163 164 168 176 170 159 170 169 165 167 170 171 180 188 183 182 187 164 181 182 181 180 180 177 179 181 191 196 210 225 211 206 190 127 160 182 184 180 182 182 180
153 161 165 167 170 179 169 160 179 182 173 195 183 182 199 196 199 199 145 173 189 190 189 187 185 188 212 197 184 199 219 225 223 201 152 138 171 188 188 185 184 187 186
149 154 161 169 179 180 170 172 182 184 176 197 192 194 204 195 200 208 175 181 194 197 200 183 195 209 213 217 210 207 223 229 230 219 151 152 178 191 190 187 186 188 189
135 145 152 160 172 191 184 181 189 191 192 200 191 206 200 209 208 206 206 198 195 200 203 203 211 210 222 221 228 232 224 231 234 228 147 157 180 193 192 189 187 185 183
121 130 139 148 157 179 190 207 198 205 204 207 201 207 214 219 225 217 217 211 216 204 198 214 218 208 218 222 227 231 238 236 247 241 172 164 181 191 194 191 186 181 178
100 105 116 155 148 177 191 209 209 215 205 215 215 218 224 236 233 229 225 218 223 218 212 213 218 212 217 228 235 237 244 242 238 243 231 170 178 187 192 189 183 178 172
69 71 72 127 131 176 197 204 203 215 222 246 243 245 248 250 247 246 238 227 225 220 212 217 214 215 215 218 233 238 238 242 238 231 234 217 187 180 180 177 174 172 169
50 59 51 29 85 136 173 193 190 216 256 283 281 262 261 263 252 246 244 235 227 228 219 216 215 214 214 216 222 227 230 229 232 225 223 218 209 182 166 161 160 161 160
46 49 51 44 41 41 74 101 48 27 353 316 298 293 282 275 265 256 253 245 235 231 225 228 213 221 216 210 214 218 223 223 223 223 209 207 191 175 163 145 148 148 150
50 48 45 47 42 38 85 110 76 35 342 312 294 308 303 285 271 250 242 234 237 232 225 226 224 223 222 208 210 214 217 223 221 215 204 187 177 168 163 155 148 141 140
49 44 36 29 26 12 347 334 72 256 273 275 303 327 291 279 265 256 249 227 230 229 229 224 215 218 218 198 191 190 196 219 233 232 202 186 169 159 156 153 146 136 132
44 35 32 25 19 5 7 350 324 317 314 347 1 29 327 294 284 261 270 250 236 234 227 225 213 221 218 199 197 189 191 190 196 233 188 162 150 148 141 137 132 131 134
40 31 26 24 21 14 5 22 75 118 254 71 33 23 6 346 332 321 297 273 250 238 234 233 225 219 217 208 202 196 196 194 158 160 179 149 142 136 129 126 125 123 121
37 34 32 27 30 25 19 31 39 30 359 5 6 25 18 16 359 334 308 283 258 247 251 247 230 234 224 213 202 217 228 170 171 156 139 127 126 125 125 126 117 112 111
42 39 38 35 36 30 30 33 24 39 38 41 46 48 32 37 26 17 2 337 287 251 245 246 243 238 233 222 200 194 201 201 190 160 154 142 108 85 95 107 108 105 107
47 42 40 41 40 32 30 35 36 42 45 45 42 42 44 40 33 31 24 19 24 19 338 238 234 226 234 222 207 192 190 197 194 172 159 153 131 100 83 85 101 103 104